Location: Hilton Head Island
(32.2163°N, 80.7526°W)
Time: 22:39:14
(UTC-04:00)

Transit 2A Rocket - Pass Details

Date: 07 February 2026
Orbit: 583 x 900 km, 66.7° (Epoch: 8 March)

Event Time Altitude Azimuth Distance (km) Brightness Sun altitude
Rises 05:45:47 0° 311° (NW) 3,274 - -18.7°
Reaches altitude 10° 05:49:34 10° 285° (WNW) 2,263 - -18.0°
Maximum altitude 05:51:54 13° 258° (WSW) 1,999 - -17.5°
Drops below altitude 10° 05:54:09 10° 230° (SW) 2,159 - -17.0°
Exits shadow 05:55:32 - 217° (SW) 2,433 7.3 -16.7°
Sets 05:57:36 0° 203° (SSW) 2,996 7.9 -16.3°
